SKYSAT-C2

Last updated on Thu Jul 03 2025 00:02:30 GMT+0000 (Coordinated Universal Time)

1 41773U 16058D 25183.56866300 .00007177 00000+0 22652-3 0 9996 2 41773 97.0525 215.3289 0002877 202.3503 157.7616 15.33126639491333
UTC large
Height (km)
Speed (km/s)
/
Latitude / Longitude
Inclination (degrees)
Orbital Period (minutes)
Azimuth
Elevation
Range (km)
Doppler Factor

Next 0 passes for location: London (51.5072 / 0.1276)

Sorry there are no passes over London.